DW2214 Weather Reports


Display with metric or nautical units.
time (UTC)temp
F
wind
direction
speed
MPH
gust
MPH
rain 1hr
in
rain 24hr
in
rain mn
in
humidity
%
barometer
mb
20200408221635 78 252 9.0 21.0 0.00 0.00 0.00 28 1010.2
20200408220158 78 277 8.0 17.0 0.00 0.00 0.00 27 1010.1
20200408214718 78 250 7.0 15.0 0.00 0.00 0.00 28 1010.3
20200408213143 78 252 4.0 15.0 0.00 0.00 0.00 29 1010.2
20200408211633 78 238 7.0 13.0 0.00 0.00 0.00 29 1010.4
20200408210315 80 242 5.0 15.0 0.00 0.00 0.00 30 1010.4
20200408204611 80 234 8.0 15.0 0.00 0.00 0.00 29 1010.7
20200408203152 80 242 4.0 15.0 0.00 0.00 0.00 28 1010.7
20200408201559 81 258 6.0 16.0 0.00 0.00 0.00 26 1010.9
20200408200201 80 202 8.0 17.0 0.00 0.00 0.00 28 1011.2
20200408194714 80 221 6.0 16.0 0.00 0.00 0.00 28 1011.3
20200408193106 78 225 5.0 13.0 0.00 0.00 0.00 29 1011.9
20200408191626 80 224 5.0 11.0 0.00 0.00 0.00 28 1012.1
20200408190036 78 211 4.0 13.0 0.00 0.00 0.00 29 1012.1
20200408184700 78 279 3.0 14.0 0.00 0.00 0.00 30 1012.4
20200408183041 78 175 6.0 10.0 0.00 0.00 0.00 29 1012.7
20200408181541 78 175 4.0 10.0 0.00 0.00 0.00 34 1012.7
20200408180101 77 153 2.0 11.0 0.00 0.00 0.00 36 1012.8
20200408174526 76 131 3.0 11.0 0.00 0.00 0.00 36 1013.0
20200408173022 75 115 3.0 11.0 0.00 0.00 0.00 37 1013.1
20200408171515 75 129 4.0 8.0 0.00 0.00 0.00 37 1013.3
20200408170021 73 119 4.0 9.0 0.00 0.00 0.00 38 1013.5
20200408164513 72 123 3.0 9.0 0.00 0.00 0.00 40 1013.6
20200408163003 71 148 3.0 9.0 0.00 0.00 0.00 44 1013.5
20200408161747 69 205 2.0 7.0 0.00 0.00 0.00 45 1013.7
20200408160150 67 121 2.0 6.0 0.00 0.00 0.00 47 1013.6
20200408154747 66 223 2.0 4.0 0.00 0.00 0.00 48 1013.8
20200408153151 64 183 1.0 4.0 0.00 0.00 0.00 49 1013.9
20200408151645 63 131 1.0 3.0 0.00 0.00 0.00 51 1013.8
20200408150115 61 133 1.0 4.0 0.00 0.00 0.00 53 1013.9
20200408144600 59 139 1.0 3.0 0.00 0.00 0.00 59 1013.7
20200408143135 57 139 0.0 2.0 0.00 0.00 0.00 65 1013.7
20200408141620 56 189 0.0 1.0 0.00 0.00 0.00 67 1013.6
20200408140122 55 189 0.0 0.0 0.00 0.00 0.00 71 1013.5
20200408134701 55 189 0.0 0.0 0.00 0.00 0.00 71 1013.2
20200408133140 55 189 0.0 0.0 0.00 0.00 0.00 69 1013.0
20200408131704 55 189 0.0 0.0 0.00 0.00 0.00 67 1012.9
20200408130131 55 189 0.0 0.0 0.00 0.00 0.00 67 1012.9
20200408124605 55 189 0.0 0.0 0.00 0.00 0.00 66 1012.5
20200408123042 55 189 0.0 0.0 0.00 0.00 0.00 66 1012.4
20200408121534 56 189 0.0 0.0 0.00 0.00 0.00 66 1012.5
20200408120051 56 189 0.0 0.0 0.00 0.00 0.00 64 1012.3
20200408114537 56 189 0.0 0.0 0.00 0.00 0.00 64 1012.3
20200408113133 56 189 0.0 0.0 0.00 0.00 0.00 63 1012.3
20200408111533 57 189 0.0 0.0 0.00 0.00 0.00 63 1012.4
20200408110102 57 189 0.0 0.0 0.00 0.00 0.00 61 1012.4
20200408104605 57 189 0.0 1.0 0.00 0.00 0.00 61 1012.5
20200408103025 58 189 0.0 0.0 0.00 0.00 0.00 61 1012.6
20200408101525 58 189 0.0 1.0 0.00 0.00 0.00 60 1012.7
20200408100048 58 189 0.0 0.0 0.00 0.00 0.00 59 1012.8
20200408094526 59 189 0.0 0.0 0.00 0.00 0.00 57 1013.0
20200408093049 59 189 0.0 0.0 0.00 0.00 0.00 55 1013.2
20200408091514 59 189 0.0 0.0 0.00 0.00 0.00 54 1013.3
20200408090011 60 189 0.0 0.0 0.00 0.00 0.00 53 1013.4
20200408084517 61 189 0.0 0.0 0.00 0.00 0.00 51 1013.4
20200408083004 61 189 0.0 0.0 0.00 0.00 0.00 50 1013.4
20200408081502 62 189 0.0 0.0 0.00 0.00 0.00 47 1013.5
20200408080127 63 189 0.0 1.0 0.00 0.00 0.00 45 1013.3
20200408074606 64 189 0.0 0.0 0.00 0.00 0.00 44 1013.4
20200408073143 64 200 1.0 3.0 0.00 0.00 0.00 44 1013.4
20200408071618 64 225 1.0 2.0 0.00 0.00 0.00 44 1013.5
20200408070058 65 225 0.0 2.0 0.00 0.00 0.00 44 1013.3
20200408064607 67 225 0.0 0.0 0.00 0.00 0.00 42 1013.3
20200408063100 68 225 0.0 1.0 0.00 0.00 0.00 39 1013.1
20200408061548 68 225 0.0 2.0 0.00 0.00 0.00 38 1013.1
20200408060115 69 225 0.0 2.0 0.00 0.00 0.00 36 1012.8
20200408054614 69 285 0.0 1.0 0.00 0.00 0.00 37 1012.8
20200408053115 69 285 0.0 1.0 0.00 0.00 0.00 37 1012.9
20200408051557 69 265 0.0 2.0 0.00 0.00 0.00 36 1012.9
20200408050045 70 265 0.0 1.0 0.00 0.00 0.00 35 1013.0
20200408044557 70 265 0.0 1.0 0.00 0.00 0.00 36 1012.9
20200408043108 71 265 0.0 1.0 0.00 0.00 0.00 33 1012.8
20200408041551 71 265 0.0 2.0 0.00 0.00 0.00 33 1012.7
20200408040036 72 265 0.0 0.0 0.00 0.00 0.00 31 1012.6
20200408034613 73 265 0.0 0.0 0.00 0.00 0.00 30 1012.4
20200408033118 74 265 0.0 0.0 0.00 0.00 0.00 29 1012.3
20200408031601 74 265 0.0 3.0 0.00 0.00 0.00 28 1012.2
20200408030035 75 261 0.0 3.0 0.00 0.00 0.00 27 1011.9
20200408024556 76 254 0.0 3.0 0.00 0.00 0.00 27 1011.7
20200408023041 76 278 0.0 3.0 0.00 0.00 0.00 26 1011.4
20200408021535 77 284 0.0 4.0 0.00 0.00 0.00 25 1011.3
20200408020113 78 286 1.0 4.0 0.00 0.00 0.00 24 1011.1
20200408013103 80 256 0.0 7.0 0.00 0.00 0.00 23 1010.9
20200408011541 81 259 0.0 7.0 0.00 0.00 0.00 20 1010.8
20200408010103 82 268 4.0 11.0 0.00 0.00 0.00 19 1010.7
20200408004542 82 215 3.0 14.0 0.00 0.00 0.00 19 1010.8
20200408003040 82 214 1.0 10.0 0.00 0.00 0.00 19 1010.8
20200408001615 82 254 3.0 6.0 0.00 0.00 0.00 20 1010.9
20200408000029 82 219 4.0 10.0 0.00 0.00 0.00 20 1011.0
20200407234524 82 202 5.0 9.0 0.00 0.00 0.00 22 1011.1
20200407233046 82 268 5.0 9.0 0.00 0.00 0.00 23 1011.2
20200407231526 82 248 4.0 10.0 0.00 0.00 0.00 24 1011.2
20200407230045 82 224 2.0 6.0 0.00 0.00 0.00 25 1011.5
20200407224513 82 240 3.0 10.0 0.00 0.00 0.00 24 1011.8
20200407223017 82 262 4.0 10.0 0.00 0.00 0.00 24 1012.0